Погода в Ломбок-Танджунг

Индонезия     8°21′15″S   116°09′36″E
темп.,
°C
ветер,
м/с
пор.,
м/с
влажн.,
%
обл.,
%
осадки,
мм/ч
давл.,
гПа
погр.,
м
2 марта, вт
вт223:00+25з118215 1.1 1011106
02:00+24ююв228510 1.3 1009123
05:00+24ю12830 0.1 1008114
08:00+26юв11800 0.2 101091
11:00+28с22740 0.3 1010362
14:00+28ссз23750 2.2 1008414
17:00+28ссз11715 1.6 1007567
20:00+26ю11783 2.0 101055
3 марта, ср
ср323:00+25ю33730 0.4 101263
02:00+25ю23750 0.4 100976
05:00+25ю23740 0.0 100991
08:00+27ю22700 0.0 1011226
11:00+29сз22660 0.1 1011446
14:00+29сз336811 1.0 1009686
17:00+28сз227120 0.9 1008569
20:00+27с118035 1.6 1010101
4 марта, чт
чт423:00+25ю118185 1.4 101243
02:00+25зюз238257 1.8 1010431
05:00+25зюз238598 0.1 1010475
08:00+26зюз238499 0.1 1011542
11:00+29зсз447079 0.0 1011581
14:00+29з456489 0.4 1009507
17:00+28зюз4671100 0.8 1008351
20:00+26ююз4573100 1.4 1011134
5 марта, пт
пт523:00+26ю2367100 0.1 101195
02:00+26ююв1164100 0.1 101089
05:00+26ююз2371100 0.0 1009209
08:00+27юз3472100 0.2 1011448
11:00+27зюз5682100 1.6 1012372
14:00+28юз4475100 3.8 1009451
17:00+28ююв2275100 1.1 1008380
20:00+26юв1176100 1.1 1010131
6 марта, сб
сб623:00+25в1174100 0.0 1010235
02:00+25вюв1177100 0.0 1009273
05:00+25ююв2273100 0.0 100977
08:00+26вюв1167100 0.0 1011139
11:00+28с2168100 0.0 1010496
14:00+27ссв227060 0.9 1008446
17:00+27св12680 0.1 1008380
20:00+26юв22720 0.2 101082